Hourly Weather Abischthof

Today, 24 January, Sunday

Time Temperature Precipitation Wind Pressure Humidity
00:00 -1°C° 0 mm 1 mps 710 mmHg 94%
01:00 -1°C° 0 mm 1 mps 711 mmHg 94%
02:00 -2°C° 0.3 mm 3 mps 711 mmHg 93%
03:00 -2°C° 0.3 mm 4 mps 711 mmHg 92%
04:00 -3°C° 0.3 mm 6 mps 712 mmHg 90%
05:00 -2°C° 0.1 mm 5 mps 712 mmHg 92%
06:00 -2°C° 0.1 mm 3 mps 713 mmHg 94%
07:00 -2°C° 0.1 mm 2 mps 713 mmHg 95%
08:00 -2°C° 0.1 mm 2 mps 714 mmHg 94%
09:00 -1°C° 0.1 mm 3 mps 714 mmHg 92%
10:00 -1°C° 0.1 mm 3 mps 715 mmHg 91%
11:00 +1°C° 0 mm 2 mps 714 mmHg 88%
12:00 +1°C° 0 mm 2 mps 714 mmHg 86%
13:00 +2°C° 0 mm 2 mps 714 mmHg 84%
14:00 +2°C° 0 mm 1 mps 714 mmHg 85%
15:00 +2°C° 0 mm 1 mps 713 mmHg 87%
16:00 +2°C° 0 mm 1 mps 713 mmHg 89%
17:00 0°C° 0 mm 0 mps 713 mmHg 90%
18:00 0°C° 0 mm 0 mps 713 mmHg 91%
19:00 -1°C° 0 mm 0 mps 714 mmHg 92%
20:00 0°C° 0.1 mm 1 mps 714 mmHg 93%
21:00 -2°C° 0.1 mm 2 mps 714 mmHg 94%
22:00 -2°C° 0.1 mm 2 mps 714 mmHg 96%
23:00 -2°C° 0.4 mm 2 mps 714 mmHg 96%

Tomorrow, 25 January, Monday

Time Temperature Precipitation Wind Pressure Humidity
00:00 -2°C° 0.4 mm 2 mps 714 mmHg 96%
01:00 -2°C° 0.4 mm 2 mps 714 mmHg 96%
02:00 -2°C° 0.4 mm 3 mps 715 mmHg 95%
03:00 -2°C° 0.4 mm 3 mps 715 mmHg 95%
04:00 -2°C° 0.4 mm 3 mps 716 mmHg 94%
05:00 -3°C° 0.3 mm 4 mps 716 mmHg 94%
06:00 -3°C° 0.3 mm 4 mps 717 mmHg 94%
07:00 -4°C° 0.3 mm 4 mps 718 mmHg 94%
08:00 -5°C° 0.3 mm 5 mps 718 mmHg 93%
09:00 -4°C° 0.3 mm 5 mps 719 mmHg 92%
10:00 -4°C° 0.3 mm 5 mps 720 mmHg 91%
11:00 -4°C° 0.1 mm 5 mps 720 mmHg 89%
12:00 -3°C° 0.1 mm 6 mps 721 mmHg 87%
13:00 -3°C° 0.1 mm 6 mps 721 mmHg 85%
14:00 -2°C° 0.2 mm 5 mps 721 mmHg 87%
15:00 -2°C° 0.2 mm 5 mps 721 mmHg 89%
16:00 -2°C° 0.2 mm 4 mps 721 mmHg 90%
17:00 -2°C° 0.6 mm 5 mps 722 mmHg 91%
18:00 -2°C° 0.6 mm 5 mps 722 mmHg 92%
19:00 -3°C° 0.6 mm 6 mps 723 mmHg 93%
20:00 -2°C° 0.8 mm 5 mps 723 mmHg 93%
21:00 -2°C° 0.8 mm 5 mps 723 mmHg 92%
22:00 -2°C° 0.8 mm 5 mps 724 mmHg 91%
23:00 -2°C° 0.3 mm 5 mps 724 mmHg 92%

Day after tomorrow, 26 January, Tuesday

Time Temperature Precipitation Wind Pressure Humidity
00:00 -2°C° 0.3 mm 5 mps 724 mmHg 92%
01:00 -4°C° 0.3 mm 5 mps 725 mmHg 92%
02:00 -3°C° 0.1 mm 4 mps 725 mmHg 92%
03:00 -3°C° 0.1 mm 4 mps 725 mmHg 92%
04:00 -3°C° 0.1 mm 4 mps 725 mmHg 93%
05:00 -3°C° 0.1 mm 4 mps 725 mmHg 93%
06:00 -3°C° 0.1 mm 4 mps 725 mmHg 93%
07:00 -3°C° 0.1 mm 4 mps 726 mmHg 94%
08:00 -3°C° 0.1 mm 4 mps 726 mmHg 93%
09:00 -2°C° 0.1 mm 4 mps 726 mmHg 93%
10:00 -2°C° 0.1 mm 4 mps 726 mmHg 93%
11:00 -1°C° 0 mm 4 mps 726 mmHg 91%
12:00 -1°C° 0 mm 4 mps 726 mmHg 90%
13:00 0°C° 0 mm 4 mps 726 mmHg 89%
14:00 +1°C° 0 mm 3 mps 726 mmHg 90%
15:00 +1°C° 0 mm 3 mps 726 mmHg 90%
16:00 +1°C° 0 mm 2 mps 726 mmHg 91%
17:00 +1°C° 0 mm 2 mps 726 mmHg 92%
18:00 +1°C° 0 mm 1 mps 726 mmHg 93%
19:00 +1°C° 0 mm 1 mps 726 mmHg 93%
20:00 +1°C° 0.1 mm 1 mps 726 mmHg 94%
21:00 -1°C° 0.1 mm 2 mps 726 mmHg 94%
22:00 -1°C° 0.1 mm 2 mps 726 mmHg 94%
23:00 -1°C° 0.3 mm 2 mps 725 mmHg 95%

27 January, Wednesday

Time Temperature Precipitation Wind Pressure Humidity
00:00 -1°C° 0.3 mm 3 mps 724 mmHg 96%
01:00 -1°C° 0.3 mm 3 mps 724 mmHg 97%
02:00 -1°C° 0.1 mm 4 mps 723 mmHg 96%
03:00 0°C° 0.1 mm 4 mps 723 mmHg 96%
04:00 0°C° 0.1 mm 5 mps 722 mmHg 95%
05:00 +1°C° 0.4 mm 5 mps 722 mmHg 96%
06:00 +1°C° 0.4 mm 5 mps 723 mmHg 97%
07:00 +1°C° 0.4 mm 5 mps 723 mmHg 98%
08:00 +2°C° 0.2 mm 5 mps 723 mmHg 97%
09:00 +2°C° 0.2 mm 5 mps 724 mmHg 97%
10:00 +3°C° 0.2 mm 4 mps 725 mmHg 96%
11:00 +3°C° 0.1 mm 4 mps 725 mmHg 96%
12:00 +2°C° 0.1 mm 5 mps 725 mmHg 95%
13:00 +2°C° 0.1 mm 5 mps 726 mmHg 95%
14:00 +3°C° 0.1 mm 4 mps 726 mmHg 95%
15:00 +3°C° 0.1 mm 4 mps 727 mmHg 94%
16:00 +3°C° 0.1 mm 4 mps 727 mmHg 94%
17:00 +3°C° 0.1 mm 3 mps 727 mmHg 94%
18:00 +2°C° 0.1 mm 3 mps 728 mmHg 94%
19:00 +3°C° 0.1 mm 2 mps 729 mmHg 94%
20:00 +3°C° 0 mm 2 mps 729 mmHg 94%
21:00 +2°C° 0 mm 2 mps 729 mmHg 94%
22:00 +2°C° 0 mm 2 mps 729 mmHg 94%
23:00 +2°C° 0 mm 1 mps 728 mmHg 94%

28 January, Thursday

Time Temperature Precipitation Wind Pressure Humidity
00:00 +2°C° 0 mm 1 mps 728 mmHg 93%
01:00 +2°C° 0 mm 1 mps 727 mmHg 93%
02:00 +2°C° 0 mm 1 mps 726 mmHg 92%
03:00 +2°C° 0 mm 1 mps 726 mmHg 91%
04:00 +2°C° 0 mm 1 mps 725 mmHg 89%
05:00 +1°C° 0.3 mm 2 mps 725 mmHg 90%
06:00 +2°C° 0.3 mm 2 mps 725 mmHg 91%
07:00 +1°C° 0.3 mm 3 mps 724 mmHg 92%
08:00 +2°C° 0.2 mm 3 mps 724 mmHg 93%
09:00 +2°C° 0.2 mm 3 mps 724 mmHg 93%
10:00 +3°C° 0.2 mm 3 mps 724 mmHg 94%
11:00 +4°C° 0 mm 4 mps 723 mmHg 93%
12:00 +5°C° 0 mm 4 mps 723 mmHg 92%
13:00 +6°C° 0 mm 5 mps 723 mmHg 91%
14:00 +6°C° 0.3 mm 5 mps 722 mmHg 91%
15:00 +5°C° 0.3 mm 5 mps 722 mmHg 92%
16:00 +5°C° 0.3 mm 5 mps 722 mmHg 92%
17:00 +5°C° 1.6 mm 5 mps 722 mmHg 93%
18:00 +3°C° 1.6 mm 5 mps 723 mmHg 93%
19:00 +3°C° 1.6 mm 5 mps 723 mmHg 94%

29 January, Friday

Time Temperature Precipitation Wind Pressure Humidity
Show more